This is the latest recevied weather packets stored in our database for station/object LZ1PDB-12. If no packets are shown the sender has not sent any weather packets the latest 10 day(s).
| Time | Temp. | Humidity | Pressure | Rain* | Wind** | Luminosity | Snow |
|---|---|---|---|---|---|---|---|
| 1777724797 | 13.33° C | 39% | 1024.3 hPa | - | - | - | - |
| 1777723896 | 12.78° C | 40% | 1024.5 hPa | - | - | - | - |
| 1777722996 | 12.22° C | 41% | 1024.6 hPa | - | - | - | - |
| 1777722096 | 12.22° C | 40% | 1024.7 hPa | - | - | - | - |
| 1777721195 | 11.67° C | 42% | 1024.8 hPa | - | - | - | - |
| 1777720295 | 11.67° C | 41% | 1024.9 hPa | - | - | - | - |
| 1777719395 | 11.67° C | 41% | 1025 hPa | - | - | - | - |
| 1777718495 | 11.11° C | 43% | 1025.2 hPa | - | - | - | - |
| 1777717594 | 11.11° C | 42% | 1025.2 hPa | - | - | - | - |
| 1777716694 | 10.56° C | 43% | 1025.4 hPa | - | - | - | - |
| 1777715794 | 11.11° C | 42% | 1025.5 hPa | - | - | - | - |
| 1777714893 | 10° C | 44% | 1025.5 hPa | - | - | - | - |
| 1777713993 | 10.56° C | 42% | 1025.5 hPa | - | - | - | - |
| 1777713093 | 9.44° C | 45% | 1025.6 hPa | - | - | - | - |
| 1777712192 | 10° C | 43% | 1025.6 hPa | - | - | - | - |
| 1777711292 | 9.44° C | 43% | 1025.7 hPa | - | - | - | - |
| 1777710392 | 8.89° C | 44% | 1026 hPa | - | - | - | - |
| 1777709492 | 8.89° C | 45% | 1026.2 hPa | - | - | - | - |
| 1777708587 | 8.89° C | 45% | 1026.3 hPa | - | - | - | - |
| 1777707686 | 8.33° C | 46% | 1026.4 hPa | - | - | - | - |
| 1777706786 | 7.78° C | 47% | 1026.5 hPa | - | - | - | - |
| 1777705886 | 7.78° C | 47% | 1026.5 hPa | - | - | - | - |
| 1777704986 | 7.78° C | 48% | 1026.6 hPa | - | - | - | - |
| 1777704086 | 7.78° C | 48% | 1026.5 hPa | - | - | - | - |
| 1777703186 | 7.78° C | 48% | 1026.5 hPa | - | - | - | - |
* Rain since midnight (hover to see other rain measurements)
** Current wind speed in m/s (hover to see current wind gust speed)